DEKART (46493 NORAD) Tracking and Keplerian Element Data

This shows tracking and keplerian element data for the satellite.

Feedback or suggestion? Click here.




ElementValue
Catalog46493
NameDEKART
Epoch Orbit991
Epoch Day338.63703618
Epoch Year2020
RAAN271.5435
Inclination97.6746
Eccentricity0.0019721
Argument of Perigee22.5572
Mean Anonmoly337.6518
Mean Motion15.034693
Decay Rate1.73E-05
L11 46493U 20068H 20338.63703618 .00001730 00000-0 13101-3 0 9992
L22 46493 97.6746 271.5435 0019721 22.5572 337.6518 15.03469300 9910

Live tracking and technical data element details for DEKART (NORAD 46493). DEKART can be tracked NOW for your location showing map with azimuth and elevation plus other details from your city location.

Track the satellite on the map from your city or location and see movement details for azimuth, elevation, latitude, longitude, range, height, and movement on the map or in text.







IsCatalogInMostPopularTable: catalog: 46493, numindb: 18
Update: records affected: 1



GetName: 46493 DEKART

Hit Count: updated at: Sat, 05 Dec 2020 04:49:39 GMT